RH
33 38 88 88 82 83 81 82 79 67 72 69 49 46 60 77 81 86 94 83 78 64 46 61 92 95 88 71 88 82 76 74 74 77 44 33 28 29 35 90 75 76 51
28 31 86 84 83 83 80 82 77 74 77 66 40 49 66 68 79 82 90 84 63 43 35 42 69 88 92 88 90 85 80 80 81 57 44 34 33 36 40 95 98 80 53
25 28 76 89 85 84 83 79 77 73 70 51 80 90 84 87 88 85 84 67 47 42 32 32 47 57 82 91 94 90 83 69 50 34 32 37 33 38 49 59 95 68 59
25 28 59 88 86 84 79 80 77 76 57 46 76 92 91 88 87 78 66 68 59 37 30 31 29 30 35 56 64 53 44 32 26 25 23 25 35 38 46 98 90 89 78
25 33 53 94 80 79 75 77 76 65 55 46 49 92 74 85 79 80 78 80 72 51 41 39 36 36 36 34 36 36 38 38 36 38 37 32 28 24 28 46 86 87 94
23 35 46 87 86 71 69 74 75 64 54 41 63 77 86 82 83 83 84 82 80 65 44 45 45 44 42 44 47 51 88 61 52 56 58 63 61 54 40 33 39 77 86
25 36 46 66 86 70 65 65 68 64 52 37 52 86 86 84 90 76 83 81 82 68 47 47 47 47 47 50 53 55 55 60 57 70 73 72 72 69 64 58 50 56 93
29 35 43 54 67 72 69 63 66 66 62 40 44 74 85 86 85 83 82 76 83 64 48 50 58 70 75 80 83 84 84 87 88 87 85 84 83 77 76 80 79 72 68
39 41 42 52 62 78 69 65 68 69 71 57 43 56 73 83 83 83 77 77 80 48 54 73 78 80 81 81 84 84 86 88 92 90 85 80 81 81 79 81 86 86 83
47 51 53 53 59 80 74 74 73 75 95 85 63 45 43 60 72 73 72 70 47 60 74 79 80 82 84 86 87 87 87 89 87 76 81 80 74 78 83 88 85 84 89
53 57 63 64 65 65 72 76 76 79 98 98 81 54 38 38 56 64 53 48 64 77 83 84 82 86 86 83 80 82 82 78 71 69 66 63 65 69 79 83 83 84 86
42 53 62 66 68 70 67 78 78 78 93 86 78 59 33 36 47 47 50 66 82 84 87 89 86 82 79 82 83 84 85 69 52 47 45 48 51 61 64 66 60 59 67
37 46 54 59 69 72 64 67 79 74 78 76 70 58 46 46 55 57 74 84 92 90 94 95 88 84 83 84 84 70 55 42 39 39 39 40 42 50 64 81 79 65 55
31 35 42 50 59 70 72 64 73 72 77 83 77 51 60 60 70 78 90 94 95 94 92 86 87 88 85 73 55 44 40 38 36 32 30 30 34 47 64 74 70 63 81
32 32 33 37 40 58 68 69 76 72 78 92 78 70 77 79 83 95 95 95 91 89 88 88 88 74 48 41 37 34 29 26 24 23 24 29 36 41 50 57 56 67 68
30 30 32 33 34 43 60 71 75 78 88 90 86 87 91 98 97 99 93 92 85 84 88 80 40 35 31 26 22 20 18 19 21 24 30 38 46 49 50 50 49 50 50
30 30 30 30 32 34 51 75 83 87 97 94 95 97 97 96 93 95 91 87 87 88 48 33 28 26 24 22 20 20 19 20 22 29 35 41 44 46 46 46 46 45 45
32 31 32 31 30 32 50 79 89 94 94 92 93 92 91 90 94 94 88 89 85 35 31 30 29 25 21 19 18 18 17 16 21 29 30 26 22 21 18 13 12 13 12
33 32 32 31 30 31 52 84 93 98 95 95 89 92 94 90 91 93 90 80 34 33 34 30 23 20 19 19 18 17 16 14 21 31 34 27 19 13 12 9 8 10 9
34 33 32 31 32 36 52 81 94 97 92 98 97 95 94 89 87 88 63 34 36 37 33 25 20 20 20 19 19 17 14 13 16 26 41 22 16 25 15 11 9 8 7
35 33 33 33 34 38 59 88 96 95 99 100 100 100 97 92 90 42 35 39 43 39 35 31 25 23 21 19 16 14 13 11 11 18 12 18 10 14 12 10 10 9 8
36 34 37 40 41 50 62 86 90 91 99 100 100 100 98 86 56 36 40 46 45 44 43 40 35 28 24 20 16 14 13 12 14 13 11 11 11 11 11 11 11 10 10
38 36 40 41 47 67 73 99 92 99 100 100 100 98 80 52 36 39 47 49 49 48 48 47 42 34 25 19 15 14 18 23 16 12 12 13 13 13 13 13 13 13 12
38 39 45 53 57 74 99 99 91 89 92 95 88 84 70 38 40 46 50 50 51 51 51 50 45 37 26 19 15 14 16 18 26 30 19 20 17 16 16 15 15 14 14
38 40 46 56 67 95 99 97 93 94 89 81 83 82 38 40 43 49 51 51 52 52 52 51 44 34 23 16 15 16 16 16 17 25 34 23 20 20 19 18 17 16 15
41 44 48 55 75 94 90 88 91 95 89 85 82 44 39 40 47 50 51 52 52 53 53 51 42 29 20 16 18 18 18 21 23 29 42 40 47 42 27 22 19 18 19
Wind_Speed
11 14 18 15 13 11 7 5 3 1 2 4 5 6 8 7 4 4 5 4 4 5 3 7 4 7 6 9 7 6 8 7 8 10 11 9 4 3 5 5 5 8 6
11 12 19 16 12 10 7 4 3 1 4 5 2 4 8 7 5 4 5 4 5 2 3 4 7 8 8 8 8 7 7 7 8 10 9 6 2 2 1 3 4 4 3
12 14 17 18 12 9 7 4 2 2 4 3 10 9 8 8 8 6 6 4 3 4 4 2 5 6 8 9 8 7 7 7 8 8 5 4 3 1 1 1 4 4 7
12 14 16 18 14 11 7 4 2 2 3 3 12 9 8 6 4 8 11 9 8 7 8 7 5 2 3 4 5 6 7 6 4 4 4 4 4 4 3 3 2 6 5
14 14 16 16 15 11 7 4 2 1 2 3 10 14 6 7 7 5 7 7 8 9 8 9 8 7 5 4 2 1 1 2 3 4 4 4 4 4 4 3 5 6 11
16 15 16 16 14 11 7 6 3 1 2 2 8 13 9 6 5 3 2 2 5 6 6 7 7 6 5 4 3 2 2 1 1 2 3 3 4 4 4 5 6 12 11
15 16 16 16 13 10 9 6 4 1 1 3 8 12 11 6 3 4 6 2 4 4 4 4 4 4 4 3 2 2 3 4 4 4 4 4 5 5 5 5 6 6 10
12 14 15 15 15 11 9 7 4 2 2 4 7 10 11 9 5 4 6 1 3 3 3 4 5 5 5 6 6 5 4 4 4 5 5 5 6 6 7 7 8 8 10
12 13 13 14 14 12 9 8 4 2 6 6 6 8 9 9 7 5 5 3 2 2 2 4 4 4 4 4 5 6 7 8 10 11 9 10 10 10 8 9 11 13 14
11 13 12 12 13 13 11 9 5 3 7 5 3 4 7 8 9 7 5 4 3 2 1 2 3 3 4 6 8 10 12 11 12 12 9 10 12 13 10 12 13 15 15
13 13 14 13 12 12 12 11 8 6 9 8 3 3 5 7 8 8 7 6 4 2 1 2 3 5 7 10 10 10 10 11 12 12 12 12 12 11 12 14 15 16 16
11 14 15 15 14 13 14 14 11 10 9 7 6 5 5 8 9 8 7 5 4 3 3 5 6 8 9 10 11 13 14 14 13 13 13 13 12 13 13 13 14 15 17
7 11 14 15 16 15 14 15 14 12 11 10 8 7 6 8 8 7 6 5 4 4 4 6 8 9 11 13 15 15 15 15 17 17 17 16 14 13 12 11 12 15 15
9 9 10 13 15 16 16 16 15 14 12 10 9 9 9 8 7 7 6 5 3 2 5 8 10 12 15 15 15 17 18 19 19 19 19 17 15 12 8 9 13 13 9
15 13 13 14 15 17 18 18 17 15 13 11 11 11 10 9 8 7 6 4 4 5 7 11 12 13 14 16 18 18 19 19 18 16 14 12 11 12 11 12 11 8 9
18 19 18 18 19 19 20 19 18 16 15 12 12 12 10 9 8 8 7 5 5 7 10 11 12 15 17 18 18 17 16 15 13 11 9 8 8 8 9 11 11 13 13
17 18 22 24 24 22 23 20 19 17 16 13 12 12 12 10 9 9 7 6 6 9 9 12 15 16 16 15 15 13 13 12 10 8 6 7 8 10 12 14 14 16 17
21 22 22 26 28 24 25 23 21 19 18 15 14 12 12 11 10 9 8 8 8 7 10 13 15 16 15 13 12 11 10 11 9 8 6 6 8 10 11 13 15 16 18
26 25 25 24 23 21 25 26 23 22 19 18 15 15 14 11 10 8 8 7 5 7 11 13 14 14 12 10 9 11 11 9 9 9 9 9 10 11 13 15 18 20 22
27 24 24 23 21 21 27 27 24 23 21 20 18 17 15 12 7 9 8 5 5 7 10 11 12 13 14 14 12 13 8 6 9 11 12 15 17 18 18 20 23 25 27
22 23 25 24 24 24 29 31 28 25 23 21 21 19 16 12 9 11 7 3 4 7 9 11 12 14 15 17 15 12 7 4 9 11 15 11 18 18 22 23 28 28 29
22 23 25 24 23 26 30 33 28 26 24 23 24 22 17 13 14 10 5 3 5 8 10 12 13 16 18 19 19 13 7 7 2 8 22 17 22 16 26 23 28 27 27
23 24 26 24 24 28 32 33 28 25 25 26 24 21 19 17 14 9 5 4 6 9 11 14 15 16 17 18 18 13 6 4 25 4 21 13 24 25 31 31 29 31 29
25 25 25 23 26 28 31 32 28 28 28 27 24 22 21 19 14 9 6 4 6 9 12 15 17 18 17 16 16 16 13 13 8 13 13 28 28 36 34 33 36 29 31
26 28 26 24 25 27 31 29 28 29 26 25 26 25 24 19 14 9 6 5 7 10 13 15 17 17 17 17 17 17 16 17 17 17 25 30 38 37 36 42 32 36 31
29 29 26 26 27 28 31 26 27 24 28 29 29 28 24 18 13 9 6 6 8 11 13 15 17 17 17 17 17 18 18 18 19 20 20 29 30 27 43 32 38 32 32
Wind_Direction
163 162 154 157 165 173 178 167 162 98 20 321 270 227 201 216 229 237 251 283 304 296 246 210 134 93 100 138 182 220 242 260 278 296 310 328 321 291 262 225 261 265 247
163 158 155 158 171 183 184 187 185 312 344 340 295 135 166 183 203 224 254 303 324 354 8 205 173 164 132 166 192 219 238 255 279 293 310 336 15 33 61 124 259 256 191
160 162 157 161 174 190 190 176 188 335 343 21 118 137 145 173 198 202 265 334 54 39 36 65 174 179 198 205 217 238 254 268 279 287 307 324 318 330 294 239 231 278 224
164 165 155 159 176 185 191 186 201 328 347 59 153 159 173 147 104 111 82 61 47 51 57 66 86 113 197 205 235 262 273 287 312 332 334 322 315 308 299 328 203 280 291
165 170 167 163 172 181 185 196 217 321 21 93 156 174 134 120 101 88 60 38 33 42 56 67 76 82 89 109 127 100 52 28 40 30 22 9 338 311 297 255 190 247 258
170 174 176 170 175 185 190 196 211 298 37 119 131 143 127 130 147 148 126 343 16 29 45 55 63 72 78 79 81 104 20 348 81 20 6 345 332 318 298 273 257 227 256
178 177 181 182 183 189 186 191 198 204 107 121 144 141 138 142 168 154 191 269 346 11 30 46 53 56 59 48 32 13 345 334 340 333 330 327 318 313 298 290 281 272 252
190 181 182 187 189 193 196 190 192 197 158 107 150 155 153 166 168 157 179 209 316 344 4 21 24 33 41 39 36 24 10 342 329 318 313 305 294 291 294 299 301 303 292
191 190 188 189 193 196 200 197 196 205 166 112 133 167 176 186 182 161 179 230 270 303 5 38 51 49 37 12 345 325 317 313 306 292 292 290 287 286 297 305 295 291 289
194 196 198 199 201 203 205 206 205 200 171 169 130 163 190 195 193 193 186 199 205 208 115 69 46 344 322 316 315 307 305 303 308 323 309 299 294 288 284 282 278 278 281
209 204 208 211 213 215 214 212 211 198 187 206 230 213 197 195 192 192 194 186 191 179 189 247 289 304 311 314 323 319 313 314 313 312 311 306 305 301 286 285 284 282 280
231 225 217 218 221 221 223 215 215 210 203 221 237 230 202 185 184 184 191 191 194 222 266 284 310 310 317 316 316 312 310 313 313 312 310 309 305 299 298 293 294 285 284
239 239 235 231 228 229 230 223 220 218 217 224 228 222 196 183 188 191 198 201 222 257 291 295 304 300 307 310 313 312 312 312 312 308 306 303 302 301 300 290 281 283 291
242 256 253 244 239 235 233 228 227 223 222 226 225 207 202 196 194 195 210 225 234 280 289 289 297 301 305 309 308 307 305 304 304 303 301 302 302 285 269 269 278 289 272
247 254 262 258 253 238 235 229 224 221 222 228 216 204 206 203 209 213 212 227 259 268 290 298 300 304 306 305 303 303 303 304 303 301 298 299 293 287 275 273 289 273 276
265 268 266 263 261 246 238 230 223 218 216 222 213 212 213 207 209 208 222 236 269 294 298 302 305 306 306 307 306 307 308 309 308 303 297 292 283 275 277 281 285 285 285
257 266 264 260 261 247 236 226 218 214 214 213 214 211 210 215 223 231 228 242 273 290 301 309 311 311 310 311 310 311 312 311 303 294 286 279 279 282 285 286 286 286 285
258 267 259 255 252 237 227 218 213 212 216 216 209 209 213 224 222 220 232 246 270 292 310 313 312 310 313 316 314 315 312 305 283 273 276 283 289 291 295 297 297 295 294
256 262 255 252 241 229 215 212 210 214 211 206 210 209 209 216 222 224 233 247 270 310 316 316 319 320 329 337 332 321 313 294 268 263 267 280 296 303 308 307 305 300 298
256 252 250 243 231 220 211 208 208 209 209 205 204 203 207 208 220 213 219 236 294 323 331 334 336 340 346 350 350 336 325 289 273 265 268 286 291 292 306 309 310 309 307
250 251 250 236 226 215 204 199 205 203 203 199 198 199 199 195 217 200 209 252 314 340 347 355 353 348 345 350 353 5 346 309 293 273 287 290 307 297 301 313 310 310 309
253 255 236 228 221 209 207 200 202 203 200 198 193 188 191 194 195 194 211 274 328 349 359 358 354 351 352 355 3 3 351 329 298 287 305 294 294 306 306 307 312 315 314
245 246 227 220 217 207 207 194 195 194 191 188 184 184 181 189 190 194 219 281 330 351 350 351 352 352 355 353 357 8 349 315 314 287 306 299 308 312 318 321 322 322 320
244 232 224 218 212 210 203 195 200 198 197 195 194 186 189 185 192 199 226 279 328 338 345 347 349 347 348 349 348 345 338 321 316 312 311 310 315 318 322 324 325 325 322
230 227 218 215 212 206 203 204 206 202 201 194 188 192 187 187 193 206 232 284 315 332 339 344 343 341 342 342 340 336 331 325 319 308 307 312 315 320 321 325 324 325 324
221 216 212 211 208 200 202 208 204 206 192 190 189 188 186 189 197 212 242 280 310 327 336 337 336 337 337 336 333 331 329 326 319 312 301 309 310 318 317 320 321 322 322